Regional Weather Roundup
Issued by NWS

Home | Current Version | Previous Version | Graphics & Text | Print | Product List | Glossary On
Versions: 1 2 3 4 5 6 7 8 9 10 11 12 13 14 15 16 17 18 19 20 21 22 23 24 25 26 27 28 29 30 31 32 33 34 35 36 37 38 39 40 41 42 43 44 45 46
000
ASUS45 KCYS 260210
RWRWY

WYOMING REGIONAL WEATHER ROUNDUP
NATIONAL WEATHER SERVICE CHEYENNE WY
700 PM MST THU DEC 25 2014

NOTE:  "FAIR" INDICATES FEW OR NO CLOUDS BELOW 12,000 FEET
WITH NO SIGNIFICANT WEATHER AND/OR OBSTRUCTIONS TO VISIBILITY.

WYZ001-260300-
YELLOWSTONE NATIONAL PARK

CITY           SKY/WX    TMP DP  RH WIND       PRES   REMARKS
LK YELLOWSTONE   N/A     11   5  77 VRB6      29.77R WCI   1
W YELLOWSTONE  NOT AVBL

$$
WYZ002>013-054>058-071-098>099-260300-
NORTHERN WYOMING

CITY           SKY/WX    TMP DP  RH WIND       PRES   REMARKS
JACKSON        CLOUDY    19  14  79 N13       29.73R WCI   7
CODY           CLOUDY    19  18  93 N9        29.88R WCI   9
GREYBULL       CLOUDY    23  16  74 W17       29.88R WCI   9
WORLAND        LGT SNOW  22  18  85 NW6       29.90R FOG     WCI  14
SHERIDAN       LGT SNOW  21  17  84 NW8       29.96S FOG     WCI  11
BUFFALO        CLOUDY    18  16  92 N21G29    29.89S WCI   1
GILLETTE       CLOUDY    19  17  92 N13       29.91R WCI   6
HULETT           N/A    N/A N/A N/A MISG        N/A
NEWCASTLE      FAIR      21  16  79 NW15G22   29.87R WCI   8

$$
WYZ014>020-022>026-101>103-260300-
CENTRAL WYOMING

CITY           SKY/WX    TMP DP  RH WIND       PRES   REMARKS
BIG PINEY      CLOUDY    16  13  88 W7        29.70R WCI   6
PINEDALE       CLOUDY    18  16  93 NW9       29.70R WCI   6
DUBOIS         NOT AVBL
LANDER         LGT SNOW  20  17  88 NE3       29.83R VSB 1
RIVERTON       FLURRIES  20  15  81 N18       29.83R WCI   5
CASPER         LGT SNOW  18  14  84 E5        29.85R FOG     WCI  11
DOUGLAS        LGT SNOW  20  16  84 N5        29.86R FOG     WCI  13

$$
WYZ021-027>030-104>119-260300-
SOUTHERN WYOMING

CITY           SKY/WX    TMP DP  RH WIND       PRES   REMARKS
EVANSTON       FLURRIES  18  14  84 E15G24    29.66S WCI   4
FORT BRIDGER   LGT SNOW  19  18  95 E14G20    29.72R WCI   5
ROCK SPRINGS   LGT SNOW  16  13  88 NE25G33   29.68R FOG     WCI  -3
DIXON          CLOUDY    24  18  76 NE20      29.61S WCI  10
RAWLINS        LGT SNOW  16  12  84 NE24      29.71R FOG     WCI  -2
SARATOGA       LGT SNOW  21  18  86 NE7       29.66R WCI  13
LARAMIE        LGT SNOW  16  11  80 E21G28    29.68R WCI  -1
CHEYENNE       FOG       19  15  84 NE21G30   29.73R VSB 1/2 WCI   3
TORRINGTON     LGT SNOW  23  20  88 NE14      29.85R VSB 1   WCI  11
PINE BLUFFS      N/A     21  19  93 N25G31    29.78R WCI   4

$$


USA.gov is the U.S. government's official web portal to all federal, state and local government web resources and services.